Tracking 17631 objects as of 5-May-2016
HD Live streaming from Space Station
objects crossing your sky now

NAVSTAR 28 (USA 85)

Track NAVSTAR 28 (USA 85) now!
NAVSTAR 28 (USA 85) is classified as:


NORAD ID: 22231
Int'l Code: 1992-079A
Perigee: 20,016.3 km
Apogee: 20,462.1 km
Inclination: 55.4 °
Period: 720.0 minutes
Semi major axis: 26610 km
RCS: 3.981 m2 (large)
Launch date: November 22, 1992
Source: United States (US)
Launch site: AIR FORCE EASTERN TEST RANGE (AFETR)
PRN:
Your satellite tracking list
Your tracking list is empty





NASA's NSSDC Master Catalog

Two Line Element Set (TLE):
1 22231U 92079A   16126.22246297 -.00000027  00000-0  00000+0 0  9996
2 22231  55.4130 243.1475 0083762 295.3739  74.5296  2.00567145171811
Source of the keplerian elements: AFSPC

N2YO: 396